[[{"header":{"parameterUnit":"m.s-1","parameterCategory":1,"la1":30.2992,"la2":30.254,"lo1":-89.0895,"lo2":-89.0443,"dy":0.0025,"dx":0.0025,"nx":19,"ny":19,"refTime":"2026-04-18T09:00:00:Z","depth":0,"parameterNumber":2,"parameterNumberName":"U-component_of_WINDS"},"data":[0,0,0,-2.3045,-2.3047,-2.3118,-2.3118,-2.3224,-2.3225,0,0,0,0,0,0,0,0,0,0,0,-2.3034,-2.3035,-2.3045,-2.3047,-2.3118,-2.3118,-2.3224,-2.3225,0,0,0,0,0,0,0,0,0,0,0,-2.3033,-2.3034,-2.3036,-2.3047,-2.3118,-2.3119,-2.3224,-2.3165,0,0,0,0,0,0,0,0,0,0,-2.3093,-2.3092,-2.3034,-2.3036,-2.3048,-2.3118,-2.3119,-2.3162,-2.3168,-2.3198,0,-2.3229,0,-2.3229,-2.3234,-2.3234,0,0,0,-2.304,-2.3087,-2.3097,-2.3036,-2.3048,-2.3118,-2.3084,-2.3165,-2.3173,-2.3208,-2.323,-2.3234,-2.3231,-2.3234,-2.3235,-2.3434,-2.3436,0,0,-2.3036,-2.3052,-2.3092,-2.3102,-2.3093,-2.3082,-2.3086,-2.317,-2.3195,-2.323,-2.3236,-2.3232,-2.3235,-2.3236,-2.3433,-2.3435,0,0,0,-2.3029,-2.3049,-2.3057,-2.3098,-2.311,-2.3084,-2.3089,-2.3191,-2.3192,-2.3237,-2.3234,-2.3236,-2.3237,-2.3432,-2.3434,-2.3513,0,0,0,-2.3027,-2.3046,-2.3056,-2.3067,-2.3109,-2.3152,-2.3109,-2.3187,-2.3196,-2.3233,-2.3236,-2.3238,-2.343,-2.3433,-2.3508,-2.3548,0,0,0,-2.3026,-2.3045,-2.3059,-2.3067,-2.3099,-2.315,-2.3156,-2.3188,-2.3194,-2.3234,-2.3239,-2.3429,-2.3432,-2.3503,-2.3541,-2.3606,0,0,0,-2.3029,-2.3129,-2.3061,-2.317,-2.3098,-2.3199,-2.3155,-2.3229,-2.3273,-2.3236,-2.3431,-2.3434,-2.3502,-2.3536,-2.3601,-2.3664,-2.3692,0,0,-2.3164,-2.3146,-2.3209,-2.315,-2.3267,-2.3186,-2.3314,-2.3339,-2.3328,-2.3399,-2.3404,-2.351,-2.354,-2.3605,-2.384,-2.3862,0,0,0,-2.3257,-2.3303,-2.333,-2.3372,-2.3393,-2.3414,-2.3417,-2.3426,-2.3486,-2.3368,-2.355,-2.3567,-2.3605,-2.3634,-2.3653,-2.3684,-2.3448,-2.3447,-2.3447,-2.3472,-2.3451,-2.3554,-2.3542,-2.3584,-2.3585,-2.3617,-2.3628,-2.3596,-2.3639,-2.3661,-2.3806,-2.3841,-2.3855,-2.3888,-2.3692,-2.3692,-2.3692,-2.3693,-2.3668,-2.3729,-2.3683,-2.3766,-2.3743,-2.3813,-2.3817,-2.3791,-2.3852,-2.3789,-2.382,-2.3754,-2.388,-2.3908,-2.3698,-2.3697,-2.3697,-2.3696,-2.3696,-2.3807,-2.3833,-2.3842,-2.39,-2.3946,-2.393,-2.399,-2.3967,-2.3946,-2.3977,-2.3997,-2.3996,-2.3992,-2.3988,-2.3989,-2.3989,-2.3989,-2.399,-2.399,-2.3949,-2.3956,-2.401,-2.4039,-2.4063,-2.409,-2.4091,-2.4113,-2.4132,-2.411,-2.411,-2.4074,-2.3896,-2.3853,-2.3998,-2.3997,-2.3996,-2.3995,-2.3994,-2.4158,-2.4106,-2.419,-2.4213,-2.4245,-2.4292,-2.4261,-2.4308,-2.4322,-2.4353,-2.4308,-2.4181,-2.4161,-2.4145,-2.4109,-2.4312,-2.4312,-2.4312,-2.4312,-2.4276,-2.4263,-2.4343,-2.4381,-2.4416,-2.4396,-2.449,-2.449,-2.4483,-2.4491,-2.4457,-2.4407,-2.4392,-2.4381,-2.436,-2.4326,-2.458,-2.458,-2.4581,-2.4403,-2.4392,-2.4478,-2.4469,-2.4491,-2.4511,-2.4598,-2.4644,-2.4624,-2.4591,-2.4496,-2.4485,-2.4403,-2.4377,-2.4344,-2.4313,-2.425,0,0]},{"header":{"parameterUnit":"m.s-1","parameterCategory":1,"la1":30.2992,"la2":30.254,"lo1":-89.0895,"lo2":-89.0443,"dy":0.0025,"dx":0.0025,"nx":19,"ny":19,"refTime":"2026-04-18T09:00:00:Z","depth":0,"parameterNumber":3,"parameterNumberName":"V-component_of_WINDS"},"data":[0,0,0,-7.0614,-7.0618,-7.0799,-7.08,-7.1042,-7.1044,0,0,0,0,0,0,0,0,0,0,0,-7.0571,-7.0573,-7.0614,-7.0619,-7.0799,-7.08,-7.1042,-7.1044,0,0,0,0,0,0,0,0,0,0,0,-7.057,-7.0573,-7.0575,-7.0619,-7.0799,-7.08,-7.1041,-7.09,0,0,0,0,0,0,0,0,0,0,-7.0722,-7.0694,-7.0572,-7.0575,-7.0621,-7.0799,-7.08,-7.0893,-7.0909,-7.0966,0,-7.1024,0,-7.1038,-7.1062,-7.1063,0,0,0,-7.061,-7.0681,-7.072,-7.0576,-7.0622,-7.0799,-7.0715,-7.0901,-7.0919,-7.0987,-7.1027,-7.1036,-7.1042,-7.1063,-7.1065,-7.1435,-7.1437,0,0,-7.06,-7.0608,-7.0708,-7.0732,-7.071,-7.0709,-7.0721,-7.0912,-7.0954,-7.1028,-7.1041,-7.1046,-7.1065,-7.1067,-7.1433,-7.1436,0,0,0,-7.0577,-7.0602,-7.0636,-7.0723,-7.0755,-7.0715,-7.0728,-7.0946,-7.0957,-7.1043,-7.1049,-7.1067,-7.107,-7.1431,-7.1434,-7.1551,0,0,0,-7.0571,-7.0589,-7.0633,-7.064,-7.0752,-7.0854,-7.0758,-7.0943,-7.0965,-7.1048,-7.1067,-7.1072,-7.1429,-7.1433,-7.1542,-7.1603,0,0,0,-7.0556,-7.0587,-7.0617,-7.064,-7.0718,-7.085,-7.0872,-7.0948,-7.0969,-7.1063,-7.1073,-7.1427,-7.1432,-7.1535,-7.1591,-7.1703,0,0,0,-7.0541,-7.0716,-7.0619,-7.0817,-7.0717,-7.0922,-7.087,-7.1022,-7.1117,-7.1068,-7.1429,-7.1434,-7.1533,-7.1584,-7.1695,-7.1799,-7.1844,0,0,-7.0767,-7.0744,-7.0859,-7.0778,-7.1003,-7.0894,-7.1135,-7.1211,-7.121,-7.1359,-7.1368,-7.1545,-7.159,-7.1702,-7.2091,-7.2126,0,0,0,-7.0933,-7.1017,-7.1074,-7.1167,-7.1232,-7.1291,-7.1331,-7.1359,-7.1486,-7.129,-7.1616,-7.1643,-7.1707,-7.1756,-7.1786,-7.1841,-7.1457,-7.1457,-7.1456,-7.1264,-7.1256,-7.1446,-7.1461,-7.155,-7.159,-7.1661,-7.1704,-7.1668,-7.1745,-7.1789,-7.2027,-7.2084,-7.2107,-7.2164,-7.1844,-7.1844,-7.1844,-7.1845,-7.1593,-7.1709,-7.1659,-7.1825,-7.1814,-7.1952,-7.1996,-7.1966,-7.209,-7.1993,-7.2049,-7.1942,-7.2146,-7.2195,-7.1853,-7.1852,-7.1851,-7.185,-7.1849,-7.1808,-7.1862,-7.1896,-7.2029,-7.2131,-7.2138,-7.2261,-7.2246,-7.2232,-7.2288,-7.2332,-7.233,-7.2325,-7.2311,-7.2312,-7.2312,-7.2313,-7.2314,-7.2314,-7.2017,-7.2051,-7.2159,-7.2244,-7.2301,-7.2374,-7.2415,-7.247,-7.2526,-7.2505,-7.2505,-7.246,-7.2169,-7.2095,-7.2327,-7.2325,-7.2323,-7.2322,-7.2321,-7.2351,-7.2274,-7.244,-7.2498,-7.2595,-7.2697,-7.2678,-7.279,-7.2833,-7.2893,-7.2837,-7.2625,-7.2598,-7.2574,-7.2513,-7.2839,-7.2839,-7.2839,-7.2839,-7.2532,-7.2519,-7.2685,-7.2778,-7.2868,-7.2867,-7.3052,-7.3085,-7.3106,-7.3131,-7.3082,-7.3,-7.2976,-7.2964,-7.2932,-7.2874,-7.3285,-7.3285,-7.3286,-7.2737,-7.2731,-7.2893,-7.2917,-7.2992,-7.3055,-7.3228,-7.3334,-7.3341,-7.3303,-7.315,-7.3131,-7.2999,-7.2957,-7.2914,-7.2864,-7.2758,0,0]}]]